Home > Weather > Kaohsiung > Past weeks

Flag for Taiwan Past Weather in Kaohsiung, Taiwan — Yesterday and Last 2 Weeks

Now
88 °F

Scattered clouds.


Feels Like: 102 °F
Forecast: 78 / 83 °F
Wind: 8 mph from Southwest

Location: Kaohsiung International Airport

Current Time: Aug 29, 2016 at 10:10:39 AM

Latest Report: Aug 29, 2016 at 9:30 AM


Visibility: N/A

Pressure: 29.71 "Hg

Humidity: 75%

Dew Point: 79 °F

Location of KaohsiungLocation

Past Weather in Kaohsiung — Graph

°F

Kaohsiung Temperature Yesterday

Maximum temperature yesterday: 91 °F (at 1:00 PM)
Minimum temperature yesterday: 82 °F (at 6:00 AM)
Average temperature yesterday: 86 °F

High & Low Weather Summary for the Past Weeks

 TemperatureHumidityPressure
High91 °F (Aug 20, 12:30 PM)100% (Aug 16, 8:00 AM)29.74 "Hg (Aug 16, 8:00 AM)
Low77 °F (Aug 16, 3:30 PM)59% (Aug 23, 2:00 PM)29.50 "Hg (Aug 15, 4:30 PM)
Average84 °F82%29.64 "Hg
* Reported Aug 14 9:00 AM — Aug 29 9:00 AM, Kaohsiung, Weather by CustomWeather, © 2016

Note: Actual official high and low records may vary slightly from our data, if they occured in-between our weather recording intervals... More about our weather records

Advertising

Kaohsiung Weather History for the Previous 24 Hours

Scroll right to see more
 ConditionsComfort  
Time TempWeatherWind HumidityBarometerVisibility
9:00 AM
Mon, Aug 29
88 °FBroken clouds.8 mph70%29.71 "HgN/A
8:30 AM88 °FBroken clouds.3 mph70%29.71 "HgN/A
8:00 AM86 °FScattered showers. Broken clouds.2 mph79%29.71 "HgN/A
7:30 AM86 °FScattered showers. Broken clouds.3 mph79%29.71 "HgN/A
7:00 AM84 °FBroken clouds.2 mph84%29.68 "Hg4 mi
6:30 AM82 °FBroken clouds.5 mph89%29.68 "Hg6 mi
6:00 AM81 °FPartly sunny.3 mph94%29.68 "Hg4 mi
5:00 AM81 °FPartly cloudy.5 mph94%29.68 "Hg4 mi
4:00 AM84 °FPartly cloudy.3 mph79%29.65 "Hg5 mi
3:00 AM84 °FPartly cloudy.5 mph79%29.65 "HgN/A
2:00 AM84 °FPartly cloudy.5 mph84%29.65 "HgN/A
1:00 AM84 °FPartly cloudy.6 mph84%29.68 "Hg6 mi
12:00 AM82 °FPassing clouds.5 mph89%29.68 "Hg6 mi
11:30 PM
Sun, Aug 28
84 °FPassing clouds.6 mph84%29.68 "HgN/A
11:00 PM82 °FPassing clouds.5 mph89%29.68 "Hg5 mi
10:30 PM82 °FScattered showers. Passing clouds.8 mph89%29.71 "Hg5 mi
10:00 PM84 °FPartly cloudy.5 mph84%29.68 "Hg5 mi
9:30 PM84 °FPartly cloudy.8 mph84%29.71 "Hg5 mi
9:00 PM84 °FPassing clouds.6 mph84%29.68 "Hg6 mi
8:46 PM84 °FPartly cloudy.7 mph84%29.68 "Hg6 mi
8:30 PM84 °FLight rain. Partly cloudy.6 mph84%29.68 "Hg6 mi
8:00 PM84 °FLight rain. Partly cloudy.7 mph84%29.68 "Hg6 mi
7:30 PM84 °FLight rain. Partly cloudy.6 mph84%29.68 "Hg5 mi
7:00 PM84 °FSprinkles. Partly cloudy.5 mph84%29.68 "Hg4 mi
6:30 PM82 °FSprinkles. Passing clouds.6 mph89%29.68 "Hg3 mi
6:02 PM84 °FRain showers. Broken clouds.7 mph84%29.65 "Hg2 mi
5:30 PM86 °FScattered showers. Broken clouds.10 mph75%29.62 "HgN/A
5:00 PM88 °FScattered showers. Broken clouds.8 mph70%29.62 "HgN/A
4:30 PM90 °FScattered showers. Broken clouds.9 mph71%29.62 "HgN/A
4:00 PM90 °FPartly sunny.10 mph71%29.62 "HgN/A
3:30 PM90 °FScattered clouds.13 mph71%29.62 "HgN/A
3:00 PM91 °FScattered clouds.10 mph71%29.62 "HgN/A
2:30 PM91 °FScattered clouds.12 mph67%29.62 "HgN/A
2:00 PM91 °FScattered clouds.12 mph67%29.65 "HgN/A
1:30 PM91 °FScattered clouds.12 mph67%29.65 "HgN/A
1:00 PM91 °FScattered clouds.8 mph67%29.65 "HgN/A
12:30 PM90 °FScattered clouds.6 mph71%29.68 "HgN/A
12:02 PM88 °FSprinkles. Scattered clouds.10 mph79%29.68 "HgN/A
11:30 AM90 °FScattered clouds.8 mph71%29.68 "HgN/A
11:00 AM90 °FScattered clouds.6 mph67%29.68 "HgN/A
10:30 AM88 °FBroken clouds.3 mph75%29.71 "Hg6 mi
10:00 AM84 °FBroken clouds.3 mph84%29.71 "Hg5 mi
Weather by CustomWeather, © 2016

See weather overviewHow to use our weather pages